Location: Clover
(42.5131°N, 114.6874°W)
Time: 08:10:36
(UTC+00:00)

Courier 1B - Pass Details

Date: 13 November 2024
Orbit: 962 x 1208 km, 28.3° (Epoch: 06 December)

Event Time Altitude Azimuth Distance (km) Brightness Sun altitude
Rises 01:22:54 0° 251° (WSW) 3,633 12.6 -12.1°
Reaches altitude 10° 01:26:15 10° 235° (SW) 2,693 11.0 -12.7°
Maximum altitude 01:30:43 20° 191° (S) 2,098 9.5 -13.5°
Drops below altitude 10° 01:35:18 10° 147° (SSE) 2,755 9.7 -14.3°
Enters shadow 01:38:21 - 132° (SE) 3,610 10.1 -14.8°
